DW5492 Weather Reports


time (UTC)temp
F
wind
direction
speed
knots
gust
knots
rain 1hr
in
rain 24hr
in
rain mn
in
humidity
%
barometer
mb
20260507220904 82 92 2.6 6.1 0.00 0.03 0.03 83 1011.3
20260507220004 82 87 3.5 7.8 0.00 0.03 0.03 83 1011.1
20260507215405 82 80 5.2 9.6 0.00 0.03 0.03 83 1011.1
20260507214504 82 84 4.3 9.6 0.00 0.03 0.03 82 1010.7
20260507213605 82 86 5.2 8.7 0.00 0.03 0.03 82 1010.6
20260507212705 82 87 4.3 8.7 0.00 0.03 0.03 82 1010.5
20260507211804 80 139 1.7 5.2 0.00 0.03 0.03 85 1010.6
20260507210904 80 155 0.9 1.7 0.00 0.03 0.03 87 1010.4
20260507210026 80 189 0.9 2.6 0.00 0.03 0.03 87 1010.6
20260507205426 80 197 0.9 2.6 0.00 0.03 0.03 87 1010.4
20260507204505 80 183 1.7 5.2 0.00 0.03 0.03 87 1010.5
20260507203604 80 209 2.6 5.2 0.00 0.03 0.03 89 1010.5
20260507202704 80 212 2.6 5.2 0.01 0.03 0.03 87 1010.4
20260507201805 79 191 2.6 7.0 0.01 0.03 0.03 87 1010.5
20260507200904 79 206 2.6 6.1 0.01 0.03 0.03 87 1010.7
20260507200005 80 162 1.7 5.2 0.01 0.03 0.03 85 1011.0
20260507195404 80 173 1.7 5.2 0.01 0.03 0.03 86 1010.7
20260507194505 80 159 0.9 5.2 0.01 0.03 0.03 88 1010.7
20260507193604 85 192 1.7 5.2 0.01 0.03 0.03 88 1010.9
20260507192725 85 121 4.3 7.8 0.00 0.02 0.02 83 1011.0
20260507191805 86 82 4.3 7.8 0.00 0.02 0.02 81 1010.7
20260507190905 86 110 2.6 6.1 0.00 0.02 0.02 81 1011.0
20260507190005 86 94 5.2 7.8 0.00 0.02 0.02 77 1010.8
20260507185405 86 91 6.1 11.3 0.00 0.02 0.02 77 1010.7
20260507184504 86 77 7.0 11.3 0.00 0.02 0.02 77 1010.9
20260507183605 86 81 6.1 12.2 0.00 0.02 0.02 78 1011.1
20260507182704 86 82 6.1 9.6 0.00 0.02 0.02 76 1010.8
20260507181804 86 78 5.2 12.2 0.00 0.02 0.02 76 1011.2
20260507180905 85 96 5.2 8.7 0.00 0.02 0.02 79 1011.1
20260507180005 86 106 5.2 11.3 0.00 0.02 0.02 77 1011.4
20260507175404 86 101 5.2 11.3 0.00 0.02 0.02 77 1011.4
20260507174505 86 80 5.2 8.7 0.00 0.02 0.02 77 1011.6
20260507173604 86 66 5.2 11.3 0.00 0.02 0.02 77 1011.7
20260507172705 86 102 5.2 12.2 0.02 0.02 0.02 77 1011.9
20260507171804 87 92 3.5 7.0 0.02 0.02 0.02 76 1011.8
20260507170905 86 81 1.7 5.2 0.02 0.02 0.02 78 1012.1
20260507170005 86 124 3.5 6.1 0.02 0.02 0.02 80 1012.3
20260507165405 87 114 3.5 6.1 0.02 0.02 0.02 79 1012.5
20260507164505 87 117 2.6 5.2 0.02 0.02 0.02 75 1012.6
20260507163604 87 135 2.6 7.0 0.02 0.02 0.02 75 1012.6
20260507162704 87 94 3.5 5.2 0.00 0.00 0.00 75 1012.6
20260507161804 87 101 3.5 6.1 0.00 0.00 0.00 75 1012.8
20260507160904 87 99 5.2 7.8 0.00 0.00 0.00 75 1012.9
20260507160005 87 95 4.3 7.0 0.00 0.00 0.00 75 1012.8
20260507155404 87 98 4.3 7.0 0.00 0.00 0.00 75 1013.0
20260507154505 87 104 3.5 7.0 0.00 0.00 0.00 75 1012.8
20260507153604 87 98 4.3 7.0 0.00 0.00 0.00 75 1012.9
20260507152704 87 82 4.3 8.7 0.00 0.00 0.00 75 1013.1
20260507151804 87 105 4.3 11.3 0.00 0.00 0.00 75 1013.1
20260507150904 87 121 4.3 9.6 0.00 0.00 0.00 75 1013.1
20260507150005 87 90 4.3 11.3 0.00 0.00 0.00 74 1013.3
20260507145404 87 102 4.3 9.6 0.00 0.00 0.00 75 1013.3
20260507144504 87 68 1.7 3.5 0.00 0.00 0.00 72 1013.5
20260507143604 87 106 2.6 6.1 0.00 0.00 0.00 72 1013.2
20260507142704 87 147 1.7 3.5 0.00 0.00 0.00 72 1013.3
20260507141825 87 132 2.6 6.1 0.00 0.00 0.00 72 1013.5
20260507140904 87 98 4.3 7.0 0.00 0.00 0.00 72 1013.4
20260507140006 87 117 2.6 7.8 0.00 0.00 0.00 72 1013.5
20260507135404 88 101 2.6 5.2 0.00 0.00 0.00 69 1013.6
20260507134504 88 149 1.7 2.6 0.00 0.00 0.00 68 1013.6
20260507133604 87 65 2.6 5.2 0.00 0.00 0.00 71 1013.6
20260507132704 87 112 1.7 6.1 0.00 0.00 0.00 70 1013.3
20260507131804 86 80 2.6 5.2 0.00 0.00 0.00 72 1013.4
20260507130904 87 71 1.7 5.2 0.00 0.00 0.00 70 1013.4
20260507130004 84 60 2.6 5.2 0.00 0.00 0.00 75 1013.4
20260507125425 85 73 2.6 5.2 0.00 0.00 0.00 75 1013.1
20260507124504 84 69 1.7 3.5 0.00 0.00 0.00 76 1013.2
20260507123604 85 96 1.7 3.5 0.00 0.00 0.00 75 1013.4
20260507122705 85 110 0.9 3.5 0.00 0.00 0.00 75 1013.3
20260507121804 83 112 0.9 2.6 0.00 0.00 0.00 76 1012.9
20260507120904 83 119 0.9 2.6 0.00 0.00 0.00 77 1012.9
20260507120005 84 119 0.9 1.7 0.00 0.00 0.00 76 1013.0
20260507115404 83 128 1.7 3.5 0.00 0.00 0.00 79 1012.9
20260507114504 82 133 1.7 2.6 0.00 0.00 0.00 81 1012.8
20260507113604 81 145 1.7 3.5 0.00 0.00 0.00 82 1012.8
20260507112725 81 158 1.7 3.5 0.00 0.00 0.00 83 1012.5
20260507111805 81 139 0.9 2.6 0.00 0.00 0.00 83 1012.5
20260507110904 80 144 0.9 1.7 0.00 0.00 0.00 85 1012.5
20260507110005 80 122 0.9 1.7 0.00 0.00 0.00 85 1012.6
20260507105425 80 127 0.0 1.7 0.00 0.00 0.00 86 1012.7
20260507104505 79 119 0.9 1.7 0.00 0.00 0.00 87 1012.5
20260507103625 78 109 0.9 1.7 0.00 0.00 0.00 88 1012.4
20260507102704 78 105 0.0 0.9 0.00 0.00 0.00 89 1012.3
20260507101804 77 139 0.0 2.6 0.00 0.00 0.00 91 1012.4
20260507100904 80 133 0.0 2.6 0.00 0.00 0.00 85 1012.3
20260507100005 80 0 0.0 0.0 0.00 0.00 0.00 85 1012.2
20260507095405 80 0 0.0 0.0 0.00 0.00 0.00 85 1012.0
20260507094525 80 0 0.0 0.0 0.00 0.00 0.00 85 1011.9
20260507093625 80 0 0.0 0.0 0.00 0.00 0.00 85 1012.1
20260507092704 80 0 0.0 0.0 0.00 0.00 0.00 85 1012.0
20260507091804 80 0 0.0 0.0 0.00 0.00 0.00 85 1012.0
20260507090904 80 0 0.0 0.0 0.00 0.00 0.00 85 1012.0
20260507090005 80 0 0.0 0.0 0.00 0.00 0.00 85 1012.0
20260507085404 80 0 0.0 0.0 0.00 0.00 0.00 85 1012.2
20260507084505 80 0 0.0 0.0 0.00 0.00 0.00 85 1012.1
20260507083604 80 0 0.0 0.0 0.00 0.00 0.00 85 1012.1
20260507082705 80 0 0.0 0.0 0.00 0.00 0.00 85 1011.9
20260507081804 80 0 0.0 0.0 0.00 0.00 0.00 85 1012.2
20260507080925 80 0 0.0 0.0 0.00 0.00 0.00 85 1012.1
20260507080005 80 0 0.0 0.0 0.00 0.00 0.00 85 1011.9
20260507075404 80 0 0.0 0.0 0.00 0.00 0.00 85 1012.0
20260507074504 80 152 0.0 1.7 0.00 0.00 0.00 85 1012.1
20260507073604 80 154 0.9 2.6 0.00 0.00 0.00 85 1012.1
20260507072704 80 0 0.0 0.0 0.00 0.00 0.00 85 1012.0
20260507071825 80 0 0.0 0.0 0.00 0.00 0.00 85 1012.3
20260507070904 80 0 0.0 0.0 0.00 0.00 0.00 85 1012.2
20260507070009 80 0 0.0 0.0 0.00 0.00 0.00 85 1012.3
20260507065425 80 0 0.0 0.0 0.00 0.00 0.00 85 1012.4
20260507064504 80 0 0.0 0.0 0.00 0.00 0.00 85 1012.3
20260507063604 80 0 0.0 0.0 0.00 0.00 0.00 85 1012.5
20260507062704 80 0 0.0 0.0 0.00 0.00 0.00 85 1012.8
20260507061804 80 0 0.0 0.0 0.00 0.00 0.00 85 1012.7
20260507060925 80 0 0.0 0.0 0.00 0.00 0.00 85 1012.8
20260507060004 80 112 0.0 1.7 0.00 0.00 0.00 85 1013.1
20260507055404 80 0 0.0 0.0 0.00 0.00 0.00 85 1012.9
20260507054504 80 0 0.0 0.0 0.00 0.00 0.00 85 1013.1
20260507053625 80 0 0.0 0.0 0.00 0.00 0.00 85 1013.0
20260507052704 80 0 0.0 0.0 0.00 0.00 0.00 85 1013.1
20260507051804 80 189 0.0 1.7 0.00 0.00 0.00 85 1013.4
20260507050904 80 200 0.9 1.7 0.00 0.00 0.00 85 1013.5
20260507050005 80 191 0.9 2.6 0.00 0.00 0.00 85 1013.6
20260507045404 80 195 0.9 2.6 0.00 0.00 0.00 85 1013.8
20260507044504 80 180 0.9 2.6 0.00 0.00 0.00 85 1013.9
20260507043604 80 153 0.9 3.5 0.00 0.00 0.00 85 1014.0
20260507042704 80 125 0.9 2.6 0.00 0.00 0.00 85 1014.2
20260507041804 80 110 0.9 2.6 0.00 0.00 0.00 85 1014.2
20260507040904 80 121 1.7 3.5 0.00 0.00 0.00 85 1014.3
20260507040005 80 117 1.7 3.5 0.00 0.00 0.00 85 1014.4
20260507035425 80 116 1.7 3.5 0.00 0.00 0.00 85 1014.2
20260507034505 80 108 0.9 1.7 0.00 0.00 0.00 85 1014.4
20260507033625 80 112 0.9 2.6 0.00 0.00 0.00 85 1014.5
20260507032704 80 113 0.0 1.7 0.00 0.00 0.00 85 1014.6
20260507031804 80 95 0.0 0.9 0.00 0.00 0.00 85 1014.7
20260507030904 80 113 0.9 1.7 0.00 0.00 0.00 85 1014.5
20260507030004 80 130 0.0 1.7 0.00 0.00 0.00 85 1014.7
20260507025425 80 0 0.0 0.0 0.00 0.00 0.00 85 1014.8
20260507024504 80 126 0.9 1.7 0.00 0.00 0.00 85 1014.7
20260507023604 80 117 0.9 3.5 0.00 0.00 0.00 85 1014.7
20260507022704 80 115 0.9 2.6 0.00 0.00 0.00 85 1014.4
20260507021804 80 128 0.9 2.6 0.00 0.00 0.00 85 1014.4
20260507020904 80 153 1.7 5.2 0.00 0.00 0.00 86 1014.4
20260507020004 79 146 1.7 3.5 0.00 0.00 0.00 87 1014.2
20260507015404 80 144 0.9 3.5 0.00 0.00 0.00 88 1014.3
20260507014504 80 114 1.7 5.2 0.00 0.00 0.00 87 1014.1
20260507013604 90 125 1.7 3.5 0.00 0.00 0.00 59 1014.2
20260507012725 90 126 1.7 3.5 0.00 0.00 0.00 59 1014.0
20260507011804 90 103 0.0 1.7 0.00 0.00 0.00 59 1014.1
20260507010004 90 132 1.7 2.6 0.00 0.00 0.00 59 1013.8
20260507005404 90 131 0.9 2.6 0.00 0.00 0.00 59 1013.8
20260507004504 90 129 0.0 1.7 0.00 0.00 0.00 59 1013.6
20260507003625 90 170 0.9 1.7 0.00 0.00 0.00 59 1013.7
20260507002725 90 152 1.7 3.5 0.00 0.00 0.00 59 1013.5
20260507001804 90 141 1.7 3.5 0.00 0.00 0.00 59 1013.5
20260507000925 90 138 2.6 6.1 0.00 0.00 0.00 59 1013.3
20260507000004 90 128 2.6 6.1 0.00 0.00 0.00 59 1013.2
20260506235404 90 126 3.5 6.1 0.00 0.00 0.00 59 1013.2
20260506234504 90 125 1.7 6.1 0.00 0.00 0.00 59 1013.0
20260506233604 90 131 2.6 5.2 0.00 0.00 0.00 59 1012.7
20260506232704 90 142 1.7 5.2 0.00 0.00 0.00 59 1012.8
20260506231804 90 140 1.7 3.5 0.00 0.00 0.00 59 1012.8
20260506230904 90 132 3.5 6.1 0.00 0.00 0.00 59 1012.5
20260506230004 90 144 3.5 6.1 0.00 0.00 0.00 59 1012.4
20260506225404 90 153 2.6 6.1 0.00 0.00 0.00 59 1012.4
20260506224504 90 180 2.6 6.1 0.00 0.00 0.00 59 1012.1
20260506223604 90 153 2.6 6.1 0.00 0.00 0.00 59 1012.1
20260506222704 90 153 2.6 7.8 0.00 0.00 0.00 59 1011.8
20260506221804 90 129 4.3 7.8 0.00 0.00 0.00 59 1011.7